Weather History for KYKN - November, 2010

Change the Weather History Date:

Monday, November 29, 2010

  Actual Average Record
Temperature  
Mean Temperature 30 °F -  
Max Temperature 39 °F 36 °F 73 °F (2014)
Min Temperature 21 °F 16 °F -7 °F (1952)
Degree Days  
Heating Degree Days 35    
Moisture  
Dew Point 21 °F    
Average Humidity 80    
Maximum Humidity 93    
Minimum Humidity 52    
Precipitation  
Precipitation 0.00 in - - ()
Sea Level Pressure  
Sea Level Pressure 29.65 in    
Wind  
Wind Speed 16 mph (NW)    
Max Wind Speed 32 mph    
Max Gust Speed 38 mph    
Visibility 6 miles    
Events      
Averages and records for this station are not official NWS values.
T = Trace of Precipitation, MM = Missing Value Source: NWS Daily Summary

Daily Weather History Graph

Daily Weather History Graph

Search for Another Location

Airport or City:

Trip Planner

Search our weather history database for the weather conditions in past years. The results will help you decide how hot, cold, wet, or windy it might be!

Date:

Astronomy

Nov. 29, 2010 Rise Set
Actual Time 7:38 AM CST 4:56 PM CST
Civil Twilight 7:07 AM CST 5:28 PM CST
Nautical Twilight 6:31 AM CST 6:03 PM CST
Astronomical Twilight 5:57 AM CST 6:37 PM CST
Moon 12:37 AM CST (11/29) 1:06 PM CST (11/29)
Length of Visible Light 10h 21m
Length of Day
9h 18m
Last Quarter, 40% of the Moon is Illuminated
Nov 29
Last Quarter
Dec 5
New
Dec 13
First Quarter
Dec 21
Full
Dec 27
Last Quarter

Hourly Weather History & Observations

Time (CST) Temp. Windchill Dew Point Humidity Pressure Visibility Wind Dir Wind Speed Gust Speed Precip Events Conditions
12:15 AM 39.2 °F 31.6 °F 23.0 °F 52% 29.47 in 10.0 mi SSE 12.7 mph - N/A   Clear
12:35 AM 35.6 °F 28.6 °F 21.2 °F 56% 29.49 in 10.0 mi West 9.2 mph - N/A   Clear
12:55 AM 37.4 °F 30.8 °F 23.0 °F 56% 29.49 in 10.0 mi West 9.2 mph - N/A   Scattered Clouds
1:15 AM 39.2 °F 34.2 °F 24.8 °F 56% 29.50 in 10.0 mi SSW 6.9 mph - N/A   Overcast
1:35 AM 32.0 °F 22.5 °F 19.4 °F 60% 29.50 in 10.0 mi WNW 12.7 mph - N/A   Overcast
1:55 AM 30.2 °F 20.2 °F 21.2 °F 69% 29.50 in 10.0 mi NW 12.7 mph - N/A   Overcast
2:15 AM 28.4 °F 16.6 °F 21.2 °F 74% 29.51 in 10.0 mi NW 16.1 mph - N/A   Overcast
2:35 AM 28.4 °F 17.0 °F 21.2 °F 74% 29.53 in 10.0 mi NW 15.0 mph 20.7 mph N/A   Overcast
2:55 AM 26.6 °F 14.3 °F 21.2 °F 80% 29.53 in 10.0 mi WNW 16.1 mph - N/A   Overcast
3:15 AM 26.6 °F 15.2 °F 21.2 °F 80% 29.53 in 10.0 mi WNW 13.8 mph - N/A   Overcast
3:35 AM 26.6 °F 17.5 °F 21.2 °F 80% 29.54 in 10.0 mi WNW 9.2 mph - N/A   Overcast
3:55 AM 26.6 °F 16.2 °F 23.0 °F 86% 29.54 in 10.0 mi WNW 11.5 mph - N/A   Overcast
4:15 AM 26.6 °F 16.2 °F 23.0 °F 86% 29.55 in 10.0 mi WNW 11.5 mph - N/A   Overcast
4:35 AM 28.4 °F 19.7 °F 23.0 °F 80% 29.55 in 10.0 mi WNW 9.2 mph - N/A   Overcast
4:55 AM 28.4 °F 19.1 °F 23.0 °F 80% 29.55 in 10.0 mi WNW 10.4 mph - N/A   Overcast
5:15 AM 28.4 °F 17.0 °F 24.8 °F 86% 29.55 in 10.0 mi WNW 15.0 mph - N/A   Overcast
5:35 AM 28.4 °F 17.5 °F 24.8 °F 86% 29.54 in 10.0 mi WNW 13.8 mph - N/A   Overcast
5:55 AM 28.4 °F 18.0 °F 24.8 °F 86% 29.55 in 10.0 mi WNW 12.7 mph 18.4 mph N/A   Overcast
6:15 AM 28.4 °F 18.0 °F 24.8 °F 86% 29.56 in 10.0 mi WNW 12.7 mph - N/A   Overcast
6:35 AM 28.4 °F 18.0 °F 24.8 °F 86% 29.57 in 10.0 mi WNW 12.7 mph - N/A   Overcast
7:35 AM 28.4 °F 17.0 °F 24.8 °F 86% 29.59 in 10.0 mi NW 15.0 mph - N/A   Overcast
7:55 AM 26.6 °F 13.8 °F 23.0 °F 86% 29.60 in 10.0 mi WNW 17.3 mph - N/A   Overcast
8:15 AM 26.6 °F 14.7 °F 23.0 °F 86% 29.60 in 10.0 mi NW 15.0 mph - N/A   Overcast
8:35 AM 26.6 °F 14.3 °F 21.2 °F 80% 29.62 in 8.0 mi NW 16.1 mph - N/A   Overcast
9:15 AM 24.8 °F 10.7 °F 21.2 °F 86% 29.64 in 5.0 mi NW 19.6 mph 24.2 mph N/A   Overcast
9:55 AM 24.8 °F 11.1 °F 21.2 °F 86% 29.65 in 5.0 mi NW 18.4 mph - N/A   Overcast
10:15 AM 24.8 °F 10.0 °F 21.2 °F 86% 29.64 in 4.0 mi NW 21.9 mph - N/A   Overcast
10:35 AM 24.8 °F 10.3 °F 23.0 °F 93% 29.65 in 4.0 mi NW 20.7 mph 26.5 mph N/A   Overcast
10:55 AM 26.6 °F 12.0 °F 21.2 °F 80% 29.66 in 5.0 mi NW 23.0 mph 27.6 mph N/A   Overcast
11:15 AM 24.8 °F 11.1 °F 21.2 °F 86% 29.68 in 2.5 mi NW 18.4 mph 21.9 mph N/A   Overcast
11:35 AM 24.8 °F 9.6 °F 21.2 °F 86% 29.66 in 2.0 mi NW 23.0 mph 29.9 mph N/A   Overcast
11:55 AM 24.8 °F 9.6 °F 21.2 °F 86% 29.65 in 1.0 mi NW 23.0 mph 27.6 mph N/A   Overcast
12:15 PM 24.8 °F 9.3 °F 21.2 °F 86% 29.64 in 1.0 mi NW 24.2 mph 32.2 mph N/A   Overcast
12:35 PM 24.8 °F 9.0 °F 21.2 °F 86% 29.64 in 1.0 mi NW 25.3 mph 32.2 mph N/A   Overcast
12:55 PM 24.8 °F 10.0 °F 19.4 °F 80% 29.65 in 1.2 mi NW 21.9 mph 25.3 mph N/A   Overcast
1:15 PM 24.8 °F 10.0 °F 19.4 °F 80% 29.65 in 0.8 mi NW 21.9 mph 29.9 mph N/A   Overcast
2:15 PM 23.0 °F 8.0 °F 19.4 °F 86% 29.68 in 0.2 mi NW 20.7 mph 33.4 mph N/A   Overcast
2:35 PM 21.2 °F 4.2 °F 19.4 °F 93% 29.70 in 0.5 mi NW 25.3 mph 28.8 mph N/A   Overcast
2:55 PM 23.0 °F 8.0 °F 19.4 °F 86% 29.71 in 1.0 mi NW 20.7 mph 25.3 mph N/A   Overcast
3:55 PM 23.0 °F 7.6 °F 17.6 °F 80% 29.74 in 1.2 mi WNW 21.9 mph 28.8 mph N/A   Overcast
4:15 PM - - - N/A% 29.75 in 1.0 mi NW 24.2 mph 33.4 mph N/A   Overcast
4:35 PM 23.0 °F 6.9 °F 17.6 °F 80% 29.76 in 2.5 mi NW 24.2 mph 31.1 mph N/A   Overcast
4:55 PM 23.0 °F 6.6 °F 17.6 °F 80% 29.77 in 1.8 mi NW 25.3 mph 32.2 mph N/A   Overcast
5:15 PM - - - N/A% 29.78 in 2.5 mi NW 27.6 mph 34.5 mph N/A   Overcast
5:35 PM 23.0 °F 6.6 °F 17.6 °F 80% 29.79 in 2.0 mi NW 25.3 mph 35.7 mph N/A   Overcast
5:55 PM - - - N/A% 29.79 in 1.8 mi NW 28.8 mph 35.7 mph N/A   Overcast
6:15 PM 23.0 °F 6.3 °F 17.6 °F 80% 29.81 in 2.5 mi NW 26.5 mph 32.2 mph N/A   Overcast
6:35 PM - - - N/A% 29.80 in 1.5 mi WNW 31.1 mph 36.8 mph N/A   Overcast
6:55 PM 23.0 °F 6.0 °F 17.6 °F 80% 29.82 in 2.5 mi NW 27.6 mph 33.4 mph N/A   Overcast
7:15 PM - - - N/A% 29.82 in 2.0 mi WNW 26.5 mph 35.7 mph N/A   Overcast
7:35 PM - - - N/A% 29.82 in 1.8 mi WNW 26.5 mph 34.5 mph N/A   Overcast
7:55 PM - - - N/A% 29.82 in 1.8 mi NW 26.5 mph 32.2 mph N/A   Overcast
8:15 PM - - - N/A% 29.82 in 1.8 mi NW 27.6 mph 34.5 mph N/A   Overcast
8:35 PM - - - N/A% 29.82 in 1.5 mi WNW 28.8 mph 35.7 mph N/A   Overcast
8:55 PM - - - N/A% 29.82 in 1.8 mi WNW 32.2 mph 38.0 mph N/A   Overcast
9:15 PM - - - N/A% 29.84 in 3.0 mi NW 26.5 mph 33.4 mph N/A   Overcast
9:35 PM - - - N/A% 29.83 in 3.0 mi WNW 27.6 mph 33.4 mph N/A   Overcast
9:55 PM - - - N/A% 29.84 in 2.0 mi WNW 26.5 mph 34.5 mph N/A   Overcast
10:15 PM - - - N/A% 29.84 in 1.2 mi WNW 31.1 mph 39.1 mph N/A   Overcast
10:35 PM - - - N/A% 29.84 in 0.8 mi NW 32.2 mph 40.3 mph N/A   Overcast
10:55 PM 23.0 °F 6.6 °F 19.4 °F 86% 29.85 in 1.5 mi NW 25.3 mph 34.5 mph N/A   Overcast
11:15 PM - - - N/A% 29.84 in 0.5 mi NW 35.7 mph 43.7 mph N/A   Overcast
11:35 PM - - - N/A% 29.85 in 1.2 mi NW 31.1 mph 39.1 mph N/A   Overcast
11:55 PM - - - N/A% 29.84 in 0.8 mi NW 32.2 mph 43.7 mph N/A   Overcast